Tracking 18945 objects as of 21-Jan-2018
HD Live streaming from Space Station
objects crossing your sky now

FENGYUN 1C DEB

Track FENGYUN 1C DEB now!
10-day predictions


NORAD ID: 30520
Int'l Code: 1999-025AJJ
Perigee: 558.3 km
Apogee: 784.9 km
Inclination: 98.7 °
Period: 98.0 minutes
Semi major axis: 7042 km
RCS: 0.0177 m2 (small)
Launch date: May 10, 1999
Source: People's Republic of China (PRC)
Launch site: Taiyaun Space Center, China (TSC)

Note: This is SATELLITE DEBRIS
aabbcc
Your satellite tracking list
Your tracking list is empty




NASA's NSSDC Master Catalog

Two Line Element Set (TLE):
1 30520U 99025AJJ 18020.66568786 +.00000334 +00000-0 +56528-4 0  9998
2 30520 098.6951 281.3294 0160860 214.6511 175.3058 14.68944092584700
Source of the keplerian elements: AFSPC